Location: Bucharest
(44.4268°N, 26.1025°E)
Time: 10:20:15
(UTC+03:00)

SPROUT - Pass Details

Date: 28 June 2022
Orbit: 588 x 598 km, 97.9° (Epoch: 15 August)

Event Time Altitude Azimuth Distance (km) Brightness Sun altitude
Exits shadow 01:11:56 22° 97° (E) 1,314 ? -22.3°
Maximum altitude 01:13:17 26° 67° (ENE) 1,177 ? -22.3°
Drops below altitude 10° 01:16:45 10° 11° (N) 1,925 ? -22.3°
Sets 01:19:10 0° 359° (N) 2,832 ? -22.3°
